Weather History for Rome, NY

Change the Weather History Date:

Saturday, October 12, 2013

  Actual Average Record
Temperature  
Mean Temperature 54 °F -  
Max Temperature 72 °F 56 °F 73 °F (1990)
Min Temperature 36 °F 40 °F 27 °F (1987)
Degree Days  
Heating Degree Days 11    
Growing Degree Days 4 (Base 50)    
Moisture  
Dew Point 45 °F    
Average Humidity 72    
Maximum Humidity 97    
Minimum Humidity 44    
Precipitation  
Precipitation 0.00 in - - ()
Sea Level Pressure  
Sea Level Pressure 30.23 in    
Wind  
Wind Speed 5 mph (ESE)    
Max Wind Speed 16 mph    
Max Gust Speed 22 mph    
Visibility 10 miles    
Events      
Averages and records for this station are not official NWS values.
T = Trace of Precipitation, MM = Missing Value Source: NWS Daily Summary

Daily Weather History Graph

Daily Weather History Graph

Search for Another Location

Airport:

Trip Planner

Search our weather history database for the weather conditions in past years. The results will help you decide how hot, cold, wet, or windy it might be!

Date:

Astronomy

Oct. 12, 2013 Rise Set
Actual Time 7:12 AM EDT 6:23 PM EDT
Civil Twilight 6:43 AM EDT 6:51 PM EDT
Nautical Twilight 6:10 AM EDT 7:24 PM EDT
Astronomical Twilight 5:37 AM EDT 7:57 PM EDT
Moon 2:40 PM EDT (10/12) 12:02 AM EDT (10/12)
Length of Visible Light 12h 08m
Length of Day
11h 11m
First Quarter, 58% of the Moon is Illuminated
Oct 12
First Quarter
Oct 18
Full
Oct 26
Last Quarter
Nov 3
New
Nov 10
First Quarter

Hourly Weather History & Observations

Time (EDT) Temp. Windchill Dew Point Humidity Pressure Visibility Wind Dir Wind Speed Gust Speed Precip Events Conditions
12:53 AM 44.1 °F - 42.1 °F 93% 30.17 in 10.0 mi Calm Calm - N/A   Clear
1:53 AM 42.1 °F - 41.0 °F 96% 30.17 in 10.0 mi Calm Calm - N/A   Clear
2:53 AM 41.0 °F - 39.0 °F 93% 30.18 in 10.0 mi Calm Calm - N/A   Clear
3:53 AM 41.0 °F - 39.0 °F 93% 30.19 in 10.0 mi Calm Calm - N/A   Clear
4:53 AM 39.9 °F 37.8 °F 37.9 °F 93% 30.20 in 10.0 mi SE 3.5 mph - N/A   Clear
5:53 AM 37.0 °F - 35.1 °F 93% 30.22 in 10.0 mi Calm Calm - N/A   Clear
6:53 AM 36.0 °F - 35.1 °F 97% 30.24 in 10.0 mi Calm Calm - N/A   Clear
7:53 AM 39.0 °F 35.7 °F 37.0 °F 93% 30.25 in 10.0 mi SE 4.6 mph - N/A   Clear
8:53 AM 46.9 °F - 42.1 °F 83% 30.26 in 10.0 mi SSE 3.5 mph - N/A   Clear
9:53 AM 55.0 °F - 44.1 °F 67% 30.26 in 10.0 mi SSE 3.5 mph - N/A   Clear
10:53 AM 60.1 °F - 46.0 °F 60% 30.27 in 10.0 mi South 5.8 mph - N/A   Clear
11:53 AM 66.0 °F - 48.9 °F 54% 30.25 in 10.0 mi SSE 9.2 mph - N/A   Clear
12:53 PM 69.1 °F - 50.0 °F 51% 30.24 in 10.0 mi SE 12.7 mph - N/A   Clear
1:53 PM 71.1 °F - 50.0 °F 47% 30.22 in 10.0 mi East 13.8 mph - N/A   Clear
2:53 PM 72.0 °F - 48.9 °F 44% 30.21 in 10.0 mi ESE 13.8 mph - N/A   Clear
3:53 PM 72.0 °F - 50.0 °F 46% 30.21 in 10.0 mi ESE 13.8 mph - N/A   Clear
4:53 PM 71.1 °F - 50.0 °F 47% 30.21 in 10.0 mi East 11.5 mph - N/A   Clear
5:53 PM 68.0 °F - 50.0 °F 52% 30.22 in 10.0 mi East 9.2 mph - N/A   Clear
6:53 PM 64.0 °F - 50.0 °F 60% 30.22 in 10.0 mi East 8.1 mph - N/A   Clear
7:53 PM 64.0 °F - 51.1 °F 63% 30.24 in 10.0 mi ESE 15.0 mph 21.9 mph N/A   Clear
8:53 PM 60.1 °F - 51.1 °F 72% 30.26 in 10.0 mi East 16.1 mph - N/A   Clear
9:53 PM 57.9 °F - 51.1 °F 78% 30.28 in 10.0 mi ESE 12.7 mph - N/A   Clear
10:53 PM 57.0 °F - 50.0 °F 77% 30.29 in 10.0 mi ESE 10.4 mph - N/A   Clear
11:53 PM 53.1 °F - 48.9 °F 86% 30.31 in 10.0 mi East 6.9 mph - N/A   Clear